www.pogodaiklimat.ru

Погода и климат >> Архив погоды >> Болгария >> София


АРХИВ ПОГОДЫ в Софии

Время (UTC), дата Ветер
(напр.,м/с)
 
Видим.   Явления Облачность Т
(С)
Тd
(С)
f
(%)
Тe
(С)
Тes
(С)
Комфортность P
(гПа)
Po
(гПа)
Тmin
(С)
Tmax
(С)
R
(мм)
R24
(мм)
S
(см)
09 12.05 штиль 0 25 км 8/3 1000 м
[Cu hum Ac trans Cs]
+19.6 +8.1 47 +20 +30 тепло 1014.4 947.1 +13.3 +19.8
12 12.05 В 4 25 км 8/5 1000 м
[Cu med, cong Ac trans Ci sp]
+21.7 +7.2 39 +23 +26 комфорт 1013.1 946.3 +13.3 +22.0
15 12.05 ЮВ 4 25 км 8/5 1000 м
[Cu med, cong Ac trans Cs]
+21.6 +7.3 40 +23 +24 комфорт 1012.8 946.0 +13.3 +22.1
18 12.05 штиль 0 18 км 8/3 1000 м
[Cu med, cong As trans]
+18.0 +10.6 62 +18 +18 тепло 1013.9 946.3 +13.3 +22.1
21 12.05 ЮВ 1 18 км 8/3 1000 м
[Cu hum As trans]
+16.3 +9.6 65 +17 +17 тепло 1014.7 946.7 +16.2 +18.4
00 13.05 штиль 0 18 км 5/1 1000 м
[Cu hum Ac trans]
+13.3 +8.4 72 +13 +13 по сезону 1015.8 947.0 +13.0 +18.4
03 13.05 штиль 0 18 км 8/1 1000 м
[Cu hum Ac inh]
+12.5 +7.3 71 +12 +12 по сезону 1016.0 947.0 +10.9 +18.4
06 13.05 ЮВ 4 26 км 9/9 1000 м
[Sc]
+13.8 +8.2 69 +12 +13 по сезону 1016.0 947.3 +10.9 +18.4
09 13.05 В 3 28 км 8/8 1000 м
[Sc diur, vesp Ac trans]
+14.8 +5.4 53 +14 +17 по сезону 1016.5 947.9 +13.7 +18.4
12 13.05 ЮВ 3 28 км 9/8 1000 м
[Sc diur, vesp Ac trans]
+16.6 +7.5 55 +16 +18 прохладно 1016.5 948.4 +13.7 +16.8
15 13.05 В 3 26 км 9/9 1000 м
[Sc]
+16.2 +8.1 59 +16 +16 по сезону 1016.2 948.0 +13.7 +17.0
18 13.05 В 2 18 км 9/6 1000 м
[Cb calv As trans]
+15.0 +9.1 68 +15 +15 по сезону 1015.7 947.3 +13.7 +17.0
21 13.05 ЮВ 5 18 км 8/8 1000 м
[Cu Sc]
+14.1 +7.6 65 +12 +12 по сезону 1015.8 947.2 +14.1 +15.2
00 14.05 ЮВ 4 18 км 8/8 1000 м
[Sc]
+12.4 +8.7 78 +10 +10 по сезону 1015.6 946.6 +12.4 +15.2
03 14.05 В 2 10 км слаб. ливневой дождь 9/9 1000 м
[Cb calv]
+11.7 +9.4 86 +11 +11 по сезону 1014.8 945.7 +11.7 +15.2
06 14.05 В 2 9000 м дымка {ливн. осадки} 10/10 1000 м
[Cb calv]
+11.3 +9.4 88 +10 +10 прохладно 1014.8 945.6 +11.1 +15.2 4
09 14.05 В 2 12 км {ливн. осадки} 9/9 1000 м
[Cb calv]
+13.6 +9.4 76 +13 +15 прохладно 1013.6 945.0 +11.3 +13.8
12 14.05 Ю 4 12 км {ливн. осадки} 8/8 1000 м
[Cb calv]
+14.6 +8.9 69 +13 +16 холодно 1012.0 943.8 +11.3 +16.4 0.1
15 14.05 ЮВ 4 12 км 9/9 1000 м
[Cb calv]
+14.0 +8.8 71 +13 +13 холодно 1010.6 942.3 +11.3 +16.4
18 14.05 Ю 2 11 км 9/9 1000 м
[Cb calv]
+13.5 +9.3 76 +13 +13 прохладно 1010.3 941.9 +11.3 +16.4 0.1
21 14.05 ЮЗ 1 11 км 8/8 1000 м
[Sc diur, vesp]
+12.8 +10.2 84 +13 +13 по сезону 1010.3 941.8 +12.8 +13.7
00 15.05 штиль 0 10 км слаб. ливневой дождь 10/10 1000 м
[Cb calv]
+12.5 +1.7 48 +12 +12 по сезону 1011.5 942.7 +12.5 +13.7 4
03 15.05 З 1 12 км слаб. ливневой дождь 9/9 1000 м
[Cb calv]
+8.0 +6.3 89 +7 +7 холодно 1012.5 942.6 +7.5 +13.7
06 15.05 штиль 0 8000 м дымка {ливн. осадки} 10/10 1000 м
[Cu Sc]
+8.3 +6.4 88 +7 +7 холодно 1013.5 943.6 +7.5 +13.7 6
09 15.05 штиль 0 8000 м дымка 10/10 1000 м
[Cu Sc]
+10.7 +7.0 78 +10 +10 холодно 1013.1 943.8 +8.2 +10.8
12 15.05 штиль 0 10 км 9/9 1000 м
[Cu Sc]
+14.1 +9.2 72 +14 +16 холодно 1011.4 943.1 +8.2 +14.3
15 15.05 штиль 0 8000 м дымка {гроза} 8/8 1000 м
[Cb calv Ci fib]
+14.0 +10.5 79 +14 +15 прохладно 1010.8 942.5 +8.2 +14.3
18 15.05 штиль 0 10 км {гроза} 9/9 1000 м
[Cb calv]
+12.8 +9.8 82 +12 +12 прохладно 1011.3 942.7 +8.2 +14.7 0.3
21 15.05 штиль 0 14 км 8/5 1000 м
[Cu med, cong Ci sp]
+10.0 +8.4 90 +9 +9 холодно 1012.4 943.1 +10.0 +13.0
00 16.05 штиль 0 10 км 8/8 1000 м
[Cu Sc]
+8.9 +8.1 95 +8 +8 прохладно 1012.3 942.7 +8.1 +13.0
03 16.05 штиль 0 10 км {ливн. осадки} 9/9 1000 м
[Cb calv]
+9.7 +8.5 92 +9 +9 прохладно 1011.4 942.1 +8.1 +13.0
06 16.05 штиль 0 10 км {ливн. осадки} 9/9 1000 м
[Cu Sc]
+11.0 +8.6 85 +10 +11 прохладно 1011.7 942.6 +8.1 +13.0 0.1
09 16.05 В 2 10 км 8/8 1000 м
[Cu Sc]
+13.4 +9.2 76 +13 +16 прохладно 1010.5 942.1 +10.9 +13.4
12 16.05 ЮЗ 2 10 км гроза, ливневой дождь 9/9 1000 м
[Cb cap]
+14.8 +10.0 73 +15 +16 холодно 1009.4 941.4 +10.9 +17.1 0.0
15 16.05 штиль 0 9000 м слаб. ливневой дождь {гроза} 9/9 1000 м
[Cb calv]
+14.2 +9.7 74 +14 +15 прохладно 1010.0 941.8 +10.9 +17.1
18 16.05 штиль 0 12 км в посл. час ливневой дождь {гроза} 9/9 1000 м
[Cb calv]
+12.8 +10.4 85 +12 +12 прохладно 1010.8 942.3 +10.9 +17.1 3
21 16.05 штиль 0 12 км 4/3 1000 м
[Cu med, cong Ci fib]
+9.5 +7.9 90 +9 +9 холодно 1013.1 943.6 +9.5 +13.2
00 17.05 штиль 0 10 км 8/8 1000 м
[Cu med, cong]
+9.7 +7.7 87 +9 +9 прохладно 1013.7 944.2 +9.5 +13.2
03 17.05 штиль 0 8000 м дымка 10/10 1000 м
[Cu Sc]
+9.6 +7.6 87 +9 +9 прохладно 1012.9 943.4 +9.5 +13.2
06 17.05 штиль 0 8000 м дымка 9/9 1000 м
[Sc]
+10.6 +8.0 84 +10 +11 прохладно 1012.2 943.0 +9.3 +13.2
09 17.05 штиль 0 10 км 8/6 1000 м
[Cu med, cong Ci fib]
+14.9 +9.4 70 +15 +23 по сезону 1011.0 942.9 +10.5 +15.7
12 17.05 С 2 10 км 6/6 1000 м
[Cu med, cong]
+18.3 +9.9 58 +19 +26 по сезону 1009.3 942.1 +10.5 +18.3
15 17.05 штиль 0 10 км гроза, ливневой дождь 8/8 1000 м
[Cb cap]
+15.0 +10.2 73 +15 +16 прохладно 1010.0 942.0 +10.5 +18.9
18 17.05 штиль 0 10 км гроза, ливневой дождь 8/8 1000 м
[Cb cap]
+13.2 +10.6 84 +13 +13 прохладно 1011.0 942.5 +10.5 +18.9 0.7
21 17.05 штиль 0 10 км {гроза, ливн. осадки} 4/4 1000 м
[Cu med, cong]
+10.5 +9.3 92 +10 +10 прохладно 1012.1 942.9 +10.5 +13.2
00 18.05 штиль 0 8000 м дымка {ливн. осадки} 9/9 1000 м
[Sc]
+10.0 +9.0 93 +9 +9 прохладно 1012.5 943.2 +8.6 +13.2 0.1
03 18.05 штиль 0 10 км дымка 4/4 1000 м
[Cu med, cong]
+7.5 +6.7 95 +6 +6 холодно 1012.5 942.5 +7.3 +13.2
06 18.05 штиль 0 1500 м дымка {туман} 9/9 600 м
[St]
+9.6 +8.8 95 +9 +10 прохладно 1012.4 943.0 +7.1 +13.2 0.1
09 18.05 В 1 15 км 3/1 1000 м
[Cu hum Ci fib]
+14.8 +10.8 77 +15 +33 опасность
простуды
1010.9 942.8 +9.3 +14.8
12 18.05 В 1 20 км 5/3 1000 м
[Cu hum Ac trans Ci fib]
+21.2 +11.0 52 +23 +35 комфорт 1007.6 941.2 +9.3 +21.2
15 18.05 штиль 0 25 км 5/3 1000 м
[Cu med, cong Ci fib]
+21.9 +9.5 45 +23 +28 комфорт 1006.2 940.0 +9.3 +23.1
18 18.05 штиль 0 20 км 3/1 1000 м
[Cu hum Ci fib]
+18.4 +10.7 61 +19 +19 тепло 1006.9 939.9 +9.3 +23.1
21 18.05 штиль 0 18 км 6/3 1000 м
[Cu hum Ci fib]
+13.8 +9.9 77 +13 +13 по сезону 1008.8 940.6 +13.0 +19.0
00 19.05 штиль 0 18 км 8/3 1000 м
[Cu hum Cs]
+12.6 +10.4 86 +12 +12 по сезону 1009.3 940.8 +12.6 +19.0
03 19.05 штиль 0 20 км 6/1 1000 м
[Cu hum Ac lent Ci fib]
+10.4 +8.6 89 +10 +10 прохладно 1010.2 941.1 +10.4 +19.0
06 19.05 ЮВ 1 26 км 6/3 1000 м
[Cu hum Ac lent Ci fib]
+16.4 +9.7 65 +17 +21 тепло 1009.0 941.4 +10.2 +19.0

 

Местоположение метеостанции София (Болгария): широта 42.65 долгота 23.38 высота над уровнем моря 591 м.

В архиве по умолчанию представлена погода в Софии за последнюю неделю. Архивные данные за месяц целиком и за предыдущие месяцы, начиная с января 2011 года, Вы можете получить, выбрав интересующий диапазон дат из раскрывающегося списка и нажав кнопку "Ввод!".


*Определитесь, кто Вы:
робот инопланетянин человек

Внимание! Время в таблицах - всемирное. Для получения местного времени необходимо прибавить поправку, которая равна 2 ч.

Смотрите также архив погоды в соседних городах и на ближайших метеорологических станциях:

Погода на Мургаше-Врыхе (Болгария) (31 км)
Погода на Мусале (Болгария) (55 км)
Погода в Димитровграде (Сербия) (66 км)
Погода в Крива-Паланке (Македония) (100 км)
Погода в Винице (Македония) (112 км)
Погода в Берово (Македония) (112 км)
Погода во Вране (Черногория) (120 км)
Погода в Ловече (Болгария) (122 км)
Погода в Лесковаце (Сербия) (122 км)
Погода в Сандански (Болгария) (126 км)

Пояснения к столбцам:

Ветер - указаны скорость ветра в м/с - средняя за 10 мин, порывы в срок и между сроками (в фигурных скобках) и направление, откуда дует ветер: С - северный, СВ - северо-восточный, В - восточный, ЮВ - юго-восточный, Ю - южный, ЮЗ - юго-западный, З - западный, СЗ - северо-западный.
Видимость - горизонтальная дальность видимости в метрах или километрах. При видимости от 1 до 10 км при отсутствии осадков обычно наблюдается дымка, при ухудшении видимости до 1 км и менее - туман. В сухую погоду видимость может ухудшаться дымом, пылью или мглою.
Явления - указаны атмосферные явления, наблюдавшиеся в срок или в последний час перед сроком; фигурными скобками обозначены явления, наблюдавшиеся между сроками (за 1-3 часа до срока); квадратными скобками обозначены град или гололедные отложения с указанием их диаметра в мм.
Облачность - указаны через наклонную черту общая и нижняя облачность в баллах и высота нижней границы облаков в метрах; квадратными скобками обозначены формы облаков: Ci - перистые, Cs - перисто-слоистые, Cc - перисто-кучевые, Ac - высококучевые, As - высокослоистые, Sc - слоисто-кучевые, Ns - слоисто-дождевые, Cu - кучевые, Cb - кучево-дождевые. Подробнее классификацию облаков см. в Атласе облаков (PDF).
T - Температура воздуха - температура, измеренная на высоте 2 м над землей.
Td - Температура точки росы - температура, при понижении до которой содержащийся в воздухе водяной пар достигнет насыщения.
f - Относительная влажность воздуха - влажноcть воздуха, измеренная на высоте 2 м над землей.
Te - Эффективная температура - температура, которую ощущает одетый по сезону человек в тени. Характеристика душности погоды. При расчете учитывается влияние влажности воздуха и скорости ветра на теплоощущения человека.
Tes - Эффективная температура на солнце - температура, которую ощущает человек, с поправкой на солнечный нагрев. Характеристика знойности погоды. Зависит от высоты солнца над горизонтом, облачности и скорости ветра. Ночью, в пасмурную погоду, а также при ветре 12 м/с и более поправка равна нулю.
P - Атмосферное давление - приведенное к уровню моря атмосферное давление.
Po - Атмосферное давление - измеренное на уровне метеостанции атмосферное давление.
Tmin - Минимальная температура - минимум температуры воздуха на высоте 2 м над землей.
Tmax - Максимальная температура - максимум температуры воздуха на высоте 2 м над землей.
R - Количество осадков - Количество выпавших осадков за период времени, мм. При наведении курсора мыши на число - период времени, за который выпало указанное количество осадков.
R24 - Количество осадков - Количество выпавших осадков за 24 часа, мм.
S - Снежный покров - Высота снежного покрова, см. При наведении курсора мыши на число - состояние снежного покрова и степень покрытия местности в баллах.